Погода в Барабинске

Погода в Барабинске : погода сейчас, прогноз погоды и архив. Всё, что Вы хотите узнать о погоде в Барабинске!

Хотите узнать прогноз погоды в Барабинске? Тогда Вам сюда: Погода в Барабинске

Поиск расширенной информации на нашем сайте:

Другие новости

Новости СМИ2

Главная страница сайта

Новости сайта

03.07.2017

Напоминаем, что на нашем специализированном сайте Метеоцентр.Азия вы можете получить высокодетализированные автоматические прогнозы погоды по пунктам России, СНГ и мира в авиационном формате (включающие направление и скорость ветра, видимость, явления погоды, количество и форму облачности, нижнюю и верхнюю границу облачности).

Рекомендуем: Для клиентов Вешняков Компьютерная скорая помощь в тушино по филям.

Погода в Барабинске - сегодня

Время (UTC), дата Ветер
(°,м/с) 
Видим.   Явления Облачность Т
(°С)
Тd
(°С)
f(%) Тe
(°С)
Pmin
(гПа)
dP
(гПа)
Po
(мм)
O2
(г/м3)
Тmin Tmax R s Состояние
почвы
18 20.02.18 170 (Ю) 20000 м    ясно 
-13.3 -16.6 76 -17  1030.2  -1.9  761  324           
21 20.02.18 160 (Ю) 20000 м    ясно 
-15 -18 78 -17  1029  -1.3  760  325           
00 21.02.18 140 (ЮВ) 20000 м    6/0 средняя 
[Ac trans]
-15.2 -18 79 -17  1027.5  -1.5  758  325  -16.3      35  неравномерный
сухой снег
100% 
03 21.02.18 120 (ЮВ) 20000 м    6/0 верхняя 
[Ci fib]
-15 -17.8 79 -17  1026.3  -1.2  758  324           
06 21.02.18 120 (ЮВ) 20000 м    9/0 верхняя 
[Cs]
-9.7 -15.4 63 -13  1024.6  -1.3  757  317           
09 21.02.18 140 (ЮВ) 20000 м    8/0 верхняя 
[Ci]
-5.4 -13.7 52 -8  1021.6  -2.7  755  311           
12 21.02.18 110 (В) 20000 м    9/0 средняя, верхняя 
[Ac trans|Ci]
-7.2 -14.1 58 -10  1019.6  -2.1  753  313    -5       
15 21.02.18 110 (В) 20000 м    9/0 верхняя 
[Ci sp]
-6.9 -13.1 61 -11  1016.4  -3.1  751  311           
18 21.02.18 110 (В) 20000 м    10/0 средняя, верхняя 
[Ac trans|Ci sp]
-6.9 -12.9 62 -10  1013.8  -2.6  749  311           
21 21.02.18 120 (ЮВ) 20000 м    10/0 средняя 
[Ac As]
-6.2 -11.7 65 -9  1011.6  -2.1  747  309           
00 22.02.18 150 (ЮВ) 20000 м    10/10 1000 м 
[Sc]
-6.2 -11.1 68 -9  1010.1  -1.5  746  309  -7.6      35  неравномерный
сухой снег
100% 
03 22.02.18 210 (ЮЗ) 10 км  слаб. ливневой снег  10/10 600 м кучево-дожд. 
[Cb calv]
-6.8 -8.7 86 -9  1010.7  0.6  746  309           
09 22.02.18 250 (З) 6-11{11}  20000 м  позёмок  ясно 
-8.6 -13.6 67 -14  1016.9  2.9  751  314           
12 22.02.18 220 (ЮЗ) 3{10}  20000 м    ясно 
-10.1 -15 67 -13  1019.6  2.5  753  316    -6.2  0.4     
15 22.02.18 200 (Ю) 20000 м    ясно 
-13.1 -15.9 79 -18  1021.3  1.5  754  320           
18 22.02.18 200 (Ю) 20000 м    ясно 
-14.7 -17.2 81 -18  1022.1  0.7  755  323           
21 22.02.18 180 (Ю) 20000 м    ясно 
-14.7 -17.3 81 -19  1021.3  -0.7  754  323           
00 23.02.18 200 (Ю) 20000 м    9/0 средняя 
[Ac trans]
-14.4 -17.1 80 -19  1020.3  -1  753  322  -15.2      36  неравномерный
сухой снег
100% 
06 23.02.18 220 (ЮЗ) 20000 м  {ливн. осадки}  6/0 средняя 
[Ac As]
-12.5 -16.6 71 -17  1021  0.6  754  320           
09 23.02.18 200 (Ю) 20000 м    3/0 верхняя 
[Ci fib]
-11.1 -15.8 68 -15  1021.3  0.4  754  318           
12 23.02.18 200 (Ю) 20000 м    4/0 верхняя 
[Ci fib]
-14.4 -17.8 75 -18  1022.1  0.6  755  322    -10.9  0.0     
15 23.02.18 200 (Ю) 20000 м    ясно 
-16.7 -19.1 82 -21  1022.3  755  325           
18 23.02.18 200 (Ю) 20000 м    ясно 
-18.2 -20.9 79 -22  1022.3  -0.1  755  327           
21 23.02.18 220 (ЮЗ) 20000 м    ясно 
-19.8 -22.8 77 -20  1022.2  -0.2  754  329           
00 24.02.18 180 (Ю) 20000 м    ясно 
-22 -25.1 76 -22  1022.2  0.1  754  332  -22      36  неравномерный
сухой снег
100% 
Время (UTC), дата Ветер
(°,м/с) 
Видим.   Явления Облачность Т
(°С)
Тd
(°С)
f(%) Тe
(°С)
Pmin
(гПа)
dP
(гПа)
Po
(мм)
O2
(г/м3)
Тmin Tmax R s Состояние
почвы

Для получения пояснительной информации подведите курсор к названию столбца.

ПОГОДА в Барабинске - архив

Всё, что Вы хотите узнать о погоде в Барабинске - удобно и подробно!

Выберите нужную дату (начиная с 1 января 2015* года) и нажмите кнопку "Найти".
Будут отображены архивные сводки погоды по пункту Барабинск, начиная с указанной даты.


Отображать данные в формате CSV (для использования в таблицах Excel)


Внимание! Наш архив погоды предназначен исключительно для личного некоммерческого использования в познавательных целях. Если Вам необходимы официальные справки о состоянии погоды (для производственных, юридических, коммерческих и т.п. целей), обращайтесь в органы Росгидромета.

*Примечание: данная дата относится к архиву по метеостанциям СССР (Россия, СНГ, Балтия).
Архив по метеостанциям Зарубежной Европы и Азии (кроме Китая) хранится 10 дней, по другим регионам земного шара (Китай, Африка, Америка, Австралия, Океания) - 1 день.

Барабинск - район местоположения метеостанции


Название, широта, долгота, высота метеостанции:
Барабинск 55.3°ш. 78.4°д. 120 м над ур. моря [Российская Федерация]

Дополнительная информация

В oтличие oт бoльшинства пoгoдных сайтoв мы публикуем пoдрoбную метеoинфoрмацию в детальнoм прoфессиoнальнoм фoрмате.

Характеристики температуры и влажнoсти вoздуха измеряются на высoте 2 м в тени вдали oт зданий и деревьев.
Скoрoсть ветра измеряется на высoте 10 м (на урoвне рoста челoвека скoрoсть ветра ниже в 1.5-2 раза). Если метеoстанция нахoдится в гoрoде или в лесу, тo скoрoсть ветра занижена на 2-4 м/с пo сравнению с oткрытым местoм. Скoрoсть ветра над акватoриями крупных рек и oзёр, а также на вершинах хoлмoв на 2-5 м/с выше, чем в oбычных услoвиях.
Атмoсфернoе давление в разных тoчках местнoсти мoжет значительнo oтличаться oт давления на метеoстанции, в зависимoсти oт услoвий рельефа (при пoдъёме на 10 м давление пoнижается примернo на 1 мм рт.ст.).